LEMUR-2-CHANUSIAK (43697 NORAD) Tracking and Keplerian Element Data

This shows tracking and keplerian element data for the satellite.

Feedback or suggestion? Click here.




ElementValue
Catalog43697
NameLEMUR-2-CHANUSIAK
Epoch Orbit26731
Epoch Day238.57942943
Epoch Year2023
RAAN14.0915
Inclination85.0156
Eccentricity0.0012234
Argument of Perigee289.4348
Mean Anonmoly70.5618
Mean Motion16.07607556
Decay Rate0.00921092
L11 43697U 18088H 23238.57942943 .00921092 46555-3 11540-2 0 9999
L22 43697 85.0156 14.0915 0012234 289.4348 70.5618 16.07607556267315



Live tracking and technical data element details for LEMUR-2-CHANUSIAK (NORAD 43697). LEMUR-2-CHANUSIAK can be tracked NOW for your location showing map with azimuth and elevation plus other details from your city location.







IsCatalogInMostPopularTable: catalog: 43697, numindb: 355
Update: records affected: 1



GetName: 43697 LEMUR-2-CHANUSIAK

Hit Count: updated at: Thu, 15 May 2025 10:35:55 GMT